START_TIME,STEP,MOV.,M34,t_acc.,L5,t_acc.,L18,t_acc.,L14,t_acc.
1979-07-28 15:00:23.880 ,1,0,0.,12.0,0.,12.0,0.,12.0,0.,12.0
1979-07-28 15:00:35.880 ,1,0,0.,12.0,0.,12.0,0.,12.0,0.,12.0
1979-07-28 15:00:47.880 ,2,1,0.,12.0,0.,12.0,0.,12.0,0.,12.0
1979-07-28 15:00:59.880 ,2,1,0.,12.0,0.,12.0,0.,12.0,0.,12.0
1979-07-28 15:01:11.880 ,2,0,0.,12.0,0.,12.0,0.,12.0,0.,12.0
1979-07-28 15:01:23.880 ,2,0,0.,12.0,0.,12.0,0.,12.0,0.,12.0
1979-07-28 15:01:35.880 ,3,1,0.,12.0,0.,12.0,0.,12.0,0.,12.0
1979-07-28 15:01:47.880 ,3,1,0.,12.0,0.,12.0,0.,12.0,0.,12.0
1979-07-28 15:01:59.880 ,3,0,0.,12.0,0.,12.0,0.,12.0,0.,12.0
1979-07-28 15:02:11.880 ,3,0,0.,12.0,0.,12.0,0.,12.0,0.,12.0
1979-07-28 15:02:23.880 ,4,1,0.,12.0,0.,12.0,0.,12.0,0.,12.0
1979-07-28 15:02:35.880 ,4,1,0.,12.0,0.,12.0,0.,12.0,0.,12.0
1979-07-28 15:02:47.880 ,4,0,0.,12.0,0.,12.0,0.,12.0,0.,12.0
1979-07-28 15:02:59.880 ,4,0,0.,12.0,0.,12.0,0.,12.0,0.,12.0
1979-07-28 15:03:11.880 ,5,1,0.,12.0,0.,12.0,0.,12.0,0.,12.0
1979-07-28 15:03:23.880 ,5,1,0.,12.0,0.,12.0,0.,12.0,0.,12.0
1979-07-28 15:03:35.880 ,5,0,0.,12.0,0.,12.0,0.,12.0,0.,12.0
1979-07-28 15:03:47.880 ,5,0,0.,12.0,0.,12.0,0.,12.0,0.,12.0
1979-07-28 15:03:59.880 ,6,1,0.,12.0,0.,12.0,0.,12.0,0.,12.0
1979-07-28 15:04:11.880 ,6,1,0.,12.0,0.,12.0,0.,12.0,0.,12.0
1979-07-28 15:04:23.880 ,6,0,0.,12.0,0.,12.0,0.,12.0,0.,12.0
1979-07-28 15:04:35.880 ,6,0,0.,12.0,0.,12.0,0.,12.0,0.,12.0
1979-07-28 15:04:47.880 ,7,1,0.,12.0,0.,12.0,0.,12.0,0.,12.0
1979-07-28 15:04:59.880 ,7,1,0.,12.0,0.,12.0,0.,12.0,0.,12.0
1979-07-28 15:05:11.880 ,7,0,0.,12.0,0.,12.0,0.,12.0,0.,12.0
1979-07-28 15:05:23.880 ,7,0,0.,12.0,0.,12.0,0.,12.0,0.,12.0
1979-07-28 15:05:35.880 ,7,1,0.,12.0,0.,12.0,0.,12.0,0.,12.0
1979-07-28 15:05:47.880 ,7,1,0.,12.0,0.,12.0,0.,12.0,0.,12.0
1979-07-28 15:05:59.880 ,7,0,0.,12.0,0.,12.0,0.,12.0,0.,12.0
1979-07-28 15:06:11.880 ,7,0,0.,12.0,0.,12.0,0.,12.0,0.,12.0
1979-07-28 15:06:23.880 ,6,1,0.,12.0,0.,12.0,0.,12.0,0.,12.0
1979-07-28 15:06:35.880 ,6,1,0.,12.0,0.,12.0,0.,12.0,0.,12.0
1979-07-28 15:06:47.880 ,6,0,0.,12.0,0.,12.0,0.,12.0,0.,12.0
1979-07-28 15:06:59.880 ,6,0,0.,12.0,0.,12.0,0.,12.0,0.,12.0
1979-07-28 15:07:11.880 ,5,1,0.,12.0,0.,12.0,0.,12.0,0.,12.0
1979-07-28 15:07:23.880 ,5,1,0.,12.0,0.,12.0,0.,12.0,0.,12.0
1979-07-28 15:07:35.880 ,5,0,0.,12.0,0.,12.0,0.,12.0,0.,12.0
1979-07-28 15:07:47.880 ,5,0,0.,12.0,0.,12.0,0.,12.0,0.,12.0
1979-07-28 15:07:59.880 ,4,1,0.,12.0,0.,12.0,0.,12.0,0.,12.0
1979-07-28 15:08:11.880 ,4,1,0.,12.0,0.,12.0,0.,12.0,0.,12.0
1979-07-28 15:08:23.880 ,4,0,0.,12.0,0.,12.0,0.,12.0,0.,12.0
1979-07-28 15:08:35.880 ,4,0,0.,12.0,0.,12.0,0.,12.0,0.,12.0
1979-07-28 15:08:47.880 ,3,1,0.,12.0,0.,12.0,0.,12.0,0.,12.0
1979-07-28 15:08:59.880 ,3,1,0.,12.0,0.,12.0,0.,12.0,0.,12.0
1979-07-28 15:09:11.880 ,3,0,0.,12.0,0.,12.0,0.,12.0,0.,12.0
1979-07-28 15:09:23.880 ,3,0,0.,12.0,0.,12.0,0.,12.0,0.,12.0
1979-07-28 15:09:35.880 ,2,1,0.,12.0,0.,12.0,0.,12.0,0.,12.0
1979-07-28 15:09:47.880 ,2,1,0.,12.0,0.,12.0,0.,12.0,0.,12.0
1979-07-28 15:09:59.880 ,2,0,0.,12.0,0.,12.0,0.,12.0,0.,12.0
1979-07-28 15:10:11.880 ,2,0,0.,12.0,0.,12.0,0.,12.0,0.,12.0
1979-07-28 15:10:23.880 ,1,1,0.,12.0,0.,12.0,0.,12.0,0.,12.0
1979-07-28 15:10:35.880 ,1,1,0.,12.0,0.,12.0,0.,12.0,0.,12.0
1979-07-28 15:10:47.880 ,1,0,0.,12.0,0.,12.0,0.,12.0,0.,12.0
1979-07-28 15:10:59.880 ,1,0,0.,12.0,0.,12.0,0.,12.0,0.,12.0
1979-07-28 15:11:11.880 ,0,1,0.,12.0,0.,12.0,0.,12.0,0.,12.0
1979-07-28 15:11:23.880 ,0,1,0.,12.0,0.,12.0,0.,12.0,0.,12.0
1979-07-28 15:11:35.880 ,0,0,0.,12.0,0.,12.0,0.,12.0,0.,12.0
1979-07-28 15:11:47.880 ,0,0,0.,12.0,0.,12.0,0.,12.0,0.,12.0
1979-07-28 15:11:59.880 ,0,1,0.,12.0,0.,12.0,0.,12.0,0.,12.0
1979-07-28 15:12:11.880 ,0,1,0.,12.0,0.,12.0,0.,12.0,0.,12.0
1979-07-28 15:12:23.880 ,0,0,0.,12.0,0.,12.0,0.,12.0,0.,12.0
1979-07-28 15:12:35.880 ,0,0,0.,12.0,0.,12.0,0.,12.0,0.,12.0
1979-07-28 15:12:47.880 ,1,1,0.,12.0,0.,12.0,0.,12.0,0.,12.0
1979-07-28 15:12:59.880 ,1,1,0.,12.0,0.,12.0,0.,12.0,0.,12.0
1979-07-28 15:13:11.880 ,1,0,0.,12.0,0.,12.0,0.,12.0,0.,12.0
1979-07-28 15:13:23.880 ,1,0,0.,12.0,0.,12.0,0.,12.0,0.,12.0
1979-07-28 15:13:35.880 ,2,1,0.,12.0,0.,12.0,0.,12.0,0.,12.0
1979-07-28 15:13:47.880 ,2,1,1.,12.0,0.,12.0,0.,12.0,0.,12.0
1979-07-28 15:13:59.880 ,2,0,0.,12.0,0.,12.0,0.,12.0,0.,12.0
1979-07-28 15:14:11.880 ,2,0,0.,12.0,0.,12.0,0.,12.0,0.,12.0
1979-07-28 15:14:23.880 ,3,1,0.,12.0,0.,12.0,0.,12.0,0.,12.0
1979-07-28 15:14:35.880 ,3,1,0.,12.0,0.,12.0,0.,12.0,0.,12.0
1979-07-28 15:14:47.880 ,3,0,0.,12.0,0.,12.0,0.,12.0,0.,12.0
1979-07-28 15:14:59.880 ,3,0,0.,12.0,0.,12.0,0.,12.0,0.,12.0
1979-07-28 15:15:11.880 ,4,1,0.,12.0,0.,12.0,0.,12.0,0.,12.0
1979-07-28 15:15:23.880 ,4,1,0.,12.0,0.,12.0,0.,12.0,0.,12.0
1979-07-28 15:15:35.880 ,4,0,0.,12.0,0.,12.0,0.,12.0,0.,12.0
1979-07-28 15:15:47.880 ,4,0,0.,12.0,0.,12.0,0.,12.0,0.,12.0
1979-07-28 15:15:59.880 ,5,1,0.,12.0,0.,12.0,0.,12.0,0.,12.0
1979-07-28 15:16:11.880 ,5,1,0.,12.0,0.,12.0,0.,12.0,0.,12.0
1979-07-28 15:16:23.880 ,5,0,0.,12.0,0.,12.0,0.,12.0,0.,12.0
1979-07-28 15:16:35.880 ,5,0,0.,12.0,0.,12.0,0.,12.0,0.,12.0
1979-07-28 15:16:47.880 ,6,1,0.,12.0,0.,12.0,0.,12.0,0.,12.0
1979-07-28 15:16:59.880 ,6,1,0.,12.0,0.,12.0,0.,12.0,0.,12.0
1979-07-28 15:17:11.880 ,6,0,0.,12.0,0.,12.0,0.,12.0,0.,12.0
1979-07-28 15:17:23.880 ,6,0,0.,12.0,0.,12.0,0.,12.0,0.,12.0
1979-07-28 15:17:35.880 ,7,1,0.,12.0,0.,12.0,0.,12.0,0.,12.0
1979-07-28 15:17:47.880 ,7,1,0.,12.0,0.,12.0,0.,12.0,0.,12.0
1979-07-28 15:17:59.880 ,7,0,0.,12.0,0.,12.0,0.,12.0,0.,12.0
1979-07-28 15:18:11.880 ,7,0,0.,12.0,0.,12.0,0.,12.0,0.,12.0
1979-07-28 15:18:23.880 ,7,1,0.,12.0,0.,12.0,0.,12.0,0.,12.0
1979-07-28 15:18:35.880 ,7,1,0.,12.0,0.,12.0,0.,12.0,0.,12.0
1979-07-28 15:18:47.880 ,7,0,0.,12.0,0.,12.0,0.,12.0,0.,12.0
1979-07-28 15:18:59.880 ,7,0,0.,12.0,0.,12.0,0.,12.0,0.,12.0
1979-07-28 15:19:11.880 ,6,1,0.,12.0,0.,12.0,0.,12.0,0.,12.0
1979-07-28 15:19:23.880 ,6,1,0.,12.0,0.,12.0,0.,12.0,0.,12.0
1979-07-28 15:19:35.880 ,6,0,0.,12.0,0.,12.0,0.,12.0,0.,12.0
1979-07-28 15:19:47.880 ,6,0,0.,12.0,0.,12.0,0.,12.0,0.,12.0
1979-07-28 15:19:59.880 ,5,1,0.,12.0,0.,12.0,0.,12.0,0.,12.0
1979-07-28 15:20:11.880 ,5,1,0.,12.0,0.,12.0,0.,12.0,0.,12.0
1979-07-28 15:20:23.880 ,5,0,0.,12.0,0.,12.0,0.,12.0,0.,12.0
1979-07-28 15:20:35.880 ,5,0,0.,12.0,0.,12.0,0.,12.0,0.,12.0
1979-07-28 15:20:47.880 ,4,1,0.,12.0,0.,12.0,0.,12.0,0.,12.0
1979-07-28 15:20:59.880 ,4,1,0.,12.0,0.,12.0,0.,12.0,0.,12.0
1979-07-28 15:21:11.880 ,4,0,0.,12.0,0.,12.0,0.,12.0,0.,12.0
1979-07-28 15:21:23.880 ,4,0,0.,12.0,0.,12.0,0.,12.0,0.,12.0
1979-07-28 15:21:35.880 ,3,1,0.,12.0,0.,12.0,0.,12.0,0.,12.0
1979-07-28 15:21:47.880 ,3,1,0.,12.0,0.,12.0,0.,12.0,0.,12.0
1979-07-28 15:21:59.880 ,3,0,0.,12.0,0.,12.0,0.,12.0,0.,12.0
1979-07-28 15:22:11.880 ,3,0,0.,12.0,0.,12.0,0.,12.0,0.,12.0
1979-07-28 15:22:23.880 ,2,1,0.,12.0,0.,12.0,0.,12.0,0.,12.0
1979-07-28 15:22:35.880 ,2,1,0.,12.0,0.,12.0,0.,12.0,0.,12.0
1979-07-28 15:22:47.880 ,2,0,0.,12.0,0.,12.0,0.,12.0,0.,12.0
1979-07-28 15:22:59.880 ,2,0,0.,12.0,0.,12.0,0.,12.0,0.,12.0
1979-07-28 15:23:11.880 ,1,1,0.,12.0,0.,12.0,0.,12.0,0.,12.0
1979-07-28 15:23:23.880 ,1,1,0.,12.0,0.,12.0,0.,12.0,0.,12.0
1979-07-28 15:23:35.880 ,1,0,0.,12.0,0.,12.0,0.,12.0,0.,12.0
1979-07-28 15:23:47.880 ,1,0,0.,12.0,0.,12.0,0.,12.0,0.,12.0
1979-07-28 15:23:59.880 ,0,1,0.,12.0,0.,12.0,0.,12.0,0.,12.0
1979-07-28 15:24:11.880 ,0,1,0.,12.0,0.,12.0,0.,12.0,0.,12.0
1979-07-28 15:24:23.880 ,0,0,0.,12.0,0.,12.0,0.,12.0,0.,12.0
1979-07-28 15:24:35.880 ,0,0,0.,12.0,0.,12.0,0.,12.0,0.,12.0
1979-07-28 15:24:47.880 ,0,1,0.,12.0,0.,12.0,0.,12.0,0.,12.0
1979-07-28 15:24:59.880 ,0,1,0.,12.0,0.,12.0,0.,12.0,0.,12.0
1979-07-28 15:25:11.880 ,0,0,0.,12.0,0.,12.0,0.,12.0,0.,12.0
1979-07-28 15:25:23.880 ,0,0,0.,12.0,0.,12.0,0.,12.0,0.,12.0
1979-07-28 15:25:35.880 ,1,1,0.,12.0,0.,12.0,0.,12.0,0.,12.0
1979-07-28 15:25:47.880 ,1,1,0.,12.0,0.,12.0,0.,12.0,0.,12.0
1979-07-28 15:25:59.880 ,1,0,0.,12.0,0.,12.0,0.,12.0,0.,12.0
1979-07-28 15:26:11.880 ,1,0,0.,12.0,0.,12.0,0.,12.0,0.,12.0
1979-07-28 15:26:23.880 ,2,1,0.,12.0,0.,12.0,0.,12.0,0.,12.0
1979-07-28 15:26:35.880 ,2,1,0.,12.0,0.,12.0,0.,12.0,0.,12.0
1979-07-28 15:26:47.880 ,2,0,0.,12.0,0.,12.0,0.,12.0,0.,12.0
1979-07-28 15:26:59.880 ,2,0,0.,12.0,0.,12.0,0.,12.0,0.,12.0
1979-07-28 15:27:11.880 ,3,1,0.,12.0,0.,12.0,0.,12.0,0.,12.0
1979-07-28 15:27:23.880 ,3,1,0.,12.0,0.,12.0,0.,12.0,0.,12.0
1979-07-28 15:27:35.880 ,3,0,0.,12.0,0.,12.0,0.,12.0,0.,12.0
1979-07-28 15:27:47.880 ,3,0,0.,12.0,0.,12.0,0.,12.0,0.,12.0
1979-07-28 15:27:59.870 ,4,1,0.,12.0,0.,12.0,0.,12.0,0.,12.0
1979-07-28 15:28:11.870 ,4,1,0.,12.0,0.,12.0,0.,12.0,0.,12.0
1979-07-28 15:28:23.870 ,4,0,0.,12.0,0.,12.0,0.,12.0,0.,12.0
1979-07-28 15:28:35.870 ,4,0,0.,12.0,0.,12.0,0.,12.0,0.,12.0
1979-07-28 15:28:47.870 ,5,1,0.,12.0,0.,12.0,0.,12.0,0.,12.0
1979-07-28 15:28:59.870 ,5,1,0.,12.0,0.,12.0,0.,12.0,0.,12.0
1979-07-28 15:29:11.870 ,5,0,0.,12.0,0.,12.0,0.,12.0,0.,12.0
1979-07-28 15:29:23.870 ,5,0,0.,12.0,0.,12.0,0.,12.0,0.,12.0
1979-07-28 15:29:35.870 ,6,1,0.,12.0,0.,12.0,0.,12.0,0.,12.0
1979-07-28 15:29:47.870 ,6,1,0.,12.0,0.,12.0,0.,12.0,0.,12.0
1979-07-28 15:29:59.870 ,6,0,0.,12.0,0.,12.0,0.,12.0,0.,12.0
1979-07-28 15:30:11.870 ,6,0,0.,12.0,0.,12.0,0.,12.0,0.,12.0
1979-07-28 15:30:23.870 ,7,0,0.,12.0,0.,12.0,0.,12.0,0.,12.0
1979-07-28 15:30:35.870 ,7,0,0.,12.0,0.,12.0,0.,12.0,0.,12.0
1979-07-28 15:30:47.870 ,7,0,0.,12.0,0.,12.0,0.,12.0,0.,12.0
1979-07-28 15:30:59.870 ,7,0,0.,12.0,0.,12.0,0.,12.0,0.,12.0
1979-07-28 15:31:11.870 ,4,1,0.,12.0,0.,12.0,0.,12.0,0.,12.0
1979-07-28 15:31:23.870 ,4,1,0.,12.0,0.,12.0,0.,12.0,0.,12.0
1979-07-28 15:31:35.870 ,0,1,0.,12.0,0.,12.0,0.,12.0,0.,12.0
1979-07-28 15:31:47.870 ,0,1,0.,12.0,0.,12.0,0.,12.0,0.,12.0
1979-07-28 15:31:59.870 ,3,1,0.,12.0,0.,12.0,0.,12.0,0.,12.0
1979-07-28 15:32:11.870 ,3,1,0.,12.0,0.,12.0,0.,12.0,0.,12.0
1979-07-28 15:32:23.870 ,7,1,0.,12.0,0.,12.0,0.,12.0,0.,12.0
1979-07-28 15:32:35.870 ,7,1,0.,12.0,0.,12.0,0.,12.0,0.,12.0
1979-07-28 15:32:47.870 ,4,1,0.,12.0,0.,12.0,0.,12.0,0.,12.0
1979-07-28 15:32:59.870 ,4,1,0.,12.0,0.,12.0,0.,12.0,0.,12.0
1979-07-28 15:33:11.870 ,0,0,0.,12.0,0.,12.0,0.,12.0,0.,12.0
1979-07-28 15:33:23.870 ,0,0,,0,,0,,0,,0
1979-07-28 15:34:07.070 ,0,0,,0,,0,,0,,0
1979-07-28 15:34:19.070 ,0,0,0.,12.0,0.,12.0,0.,12.0,0.,12.0
1979-07-28 15:34:23.870 ,4,1,0.,12.0,0.,12.0,0.,12.0,0.,12.0
1979-07-28 15:34:35.870 ,4,1,0.,12.0,0.,12.0,0.,12.0,0.,12.0
1979-07-28 15:34:47.870 ,0,1,0.,12.0,0.,12.0,0.,12.0,0.,12.0
1979-07-28 15:34:59.870 ,0,1,0.,12.0,0.,12.0,0.,12.0,0.,12.0
1979-07-28 15:35:11.870 ,3,1,0.,12.0,0.,12.0,0.,12.0,0.,12.0
1979-07-28 15:35:23.870 ,3,1,0.,12.0,0.,12.0,0.,12.0,0.,12.0
1979-07-28 15:35:35.870 ,7,1,0.,12.0,0.,12.0,0.,12.0,0.,12.0
1979-07-28 15:35:47.870 ,7,1,0.,12.0,0.,12.0,0.,12.0,0.,12.0
1979-07-28 15:35:59.870 ,4,1,0.,12.0,0.,12.0,0.,12.0,0.,12.0
1979-07-28 15:36:11.870 ,4,1,0.,12.0,0.,12.0,0.,12.0,0.,12.0
1979-07-28 15:36:23.870 ,0,1,0.,12.0,0.,12.0,0.,12.0,0.,12.0
1979-07-28 15:36:35.870 ,0,1,0.,12.0,0.,12.0,0.,12.0,0.,12.0
1979-07-28 15:36:47.870 ,3,1,0.,12.0,0.,12.0,0.,12.0,0.,12.0
1979-07-28 15:36:59.870 ,3,1,0.,12.0,0.,12.0,0.,12.0,0.,12.0
1979-07-28 15:37:11.870 ,7,1,0.,12.0,0.,12.0,0.,12.0,0.,12.0
1979-07-28 15:37:23.870 ,7,1,0.,12.0,0.,12.0,0.,12.0,0.,12.0
1979-07-28 15:37:35.870 ,4,1,0.,12.0,0.,12.0,0.,12.0,0.,12.0
1979-07-28 15:37:47.870 ,4,1,0.,12.0,0.,12.0,0.,12.0,0.,12.0
1979-07-28 15:37:59.870 ,0,1,0.,12.0,0.,12.0,0.,12.0,0.,12.0
1979-07-28 15:38:11.870 ,0,1,0.,12.0,0.,12.0,0.,12.0,0.,12.0
1979-07-28 15:38:23.870 ,3,1,0.,12.0,0.,12.0,0.,12.0,0.,12.0
1979-07-28 15:38:35.870 ,3,1,0.,12.0,0.,12.0,0.,12.0,0.,12.0
1979-07-28 15:38:47.870 ,7,1,0.,12.0,0.,12.0,0.,12.0,0.,12.0
1979-07-28 15:38:59.870 ,7,1,0.,12.0,0.,12.0,0.,12.0,0.,12.0
1979-07-28 15:39:11.870 ,4,1,0.,12.0,0.,12.0,0.,12.0,0.,12.0
1979-07-28 15:39:23.870 ,4,1,0.,12.0,0.,12.0,0.,12.0,0.,12.0
1979-07-28 15:39:35.870 ,0,1,0.,12.0,0.,12.0,0.,12.0,0.,12.0
1979-07-28 15:39:47.870 ,0,1,0.,12.0,0.,12.0,0.,12.0,0.,12.0
1979-07-28 15:39:59.870 ,3,1,0.,12.0,0.,12.0,0.,12.0,0.,12.0
1979-07-28 15:40:11.870 ,3,1,0.,12.0,0.,12.0,0.,12.0,0.,12.0
1979-07-28 15:40:23.870 ,7,1,0.,12.0,0.,12.0,0.,12.0,0.,12.0
1979-07-28 15:40:35.870 ,7,1,0.,12.0,0.,12.0,0.,12.0,0.,12.0
1979-07-28 15:40:47.870 ,4,1,0.,12.0,0.,12.0,0.,12.0,0.,12.0
1979-07-28 15:40:59.870 ,4,1,0.,12.0,0.,12.0,0.,12.0,0.,12.0
1979-07-28 15:41:11.870 ,0,1,0.,12.0,0.,12.0,0.,12.0,0.,12.0
1979-07-28 15:41:23.870 ,0,1,0.,12.0,0.,12.0,0.,12.0,0.,12.0
1979-07-28 15:41:35.870 ,0,0,0.,12.0,0.,12.0,0.,12.0,0.,12.0
1979-07-28 15:41:47.870 ,0,0,0.,12.0,0.,12.0,0.,12.0,0.,12.0
1979-07-28 15:41:59.870 ,0,0,0.,12.0,0.,12.0,0.,12.0,0.,12.0
1979-07-28 15:42:11.870 ,0,0,1.,12.0,0.,12.0,0.,12.0,0.,12.0
1979-07-28 15:42:23.870 ,5,1,0.,12.0,0.,12.0,0.,12.0,0.,12.0
1979-07-28 15:42:35.870 ,5,1,0.,12.0,0.,12.0,0.,12.0,0.,12.0
1979-07-28 15:42:47.870 ,5,0,0.,12.0,0.,12.0,0.,12.0,0.,12.0
1979-07-28 15:42:59.870 ,5,0,0.,12.0,0.,12.0,0.,12.0,0.,12.0
1979-07-28 15:43:11.870 ,4,1,0.,12.0,0.,12.0,0.,12.0,0.,12.0
1979-07-28 15:43:23.870 ,4,1,0.,12.0,0.,12.0,0.,12.0,0.,12.0
1979-07-28 15:43:35.870 ,4,0,0.,12.0,0.,12.0,0.,12.0,0.,12.0
1979-07-28 15:43:47.870 ,4,0,0.,12.0,0.,12.0,0.,12.0,0.,12.0
1979-07-28 15:43:59.870 ,3,1,0.,12.0,0.,12.0,0.,12.0,0.,12.0
1979-07-28 15:44:11.870 ,3,1,0.,12.0,0.,12.0,0.,12.0,0.,12.0
1979-07-28 15:44:23.870 ,3,0,0.,12.0,0.,12.0,0.,12.0,0.,12.0
1979-07-28 15:44:35.870 ,3,0,0.,12.0,0.,12.0,0.,12.0,0.,12.0
1979-07-28 15:44:47.870 ,2,1,0.,12.0,0.,12.0,0.,12.0,0.,12.0
1979-07-28 15:44:59.870 ,2,1,1.,12.0,0.,12.0,0.,12.0,0.,12.0
1979-07-28 15:45:11.870 ,2,0,0.,12.0,0.,12.0,0.,12.0,0.,12.0
1979-07-28 15:45:23.870 ,2,0,0.,12.0,0.,12.0,0.,12.0,0.,12.0
1979-07-28 15:45:35.870 ,1,1,0.,12.0,0.,12.0,0.,12.0,0.,12.0
1979-07-28 15:45:47.870 ,1,1,0.,12.0,0.,12.0,0.,12.0,0.,12.0
1979-07-28 15:45:59.870 ,1,0,0.,12.0,0.,12.0,0.,12.0,0.,12.0
1979-07-28 15:46:11.870 ,1,0,0.,12.0,0.,12.0,0.,12.0,0.,12.0
1979-07-28 15:46:23.870 ,0,1,0.,12.0,0.,12.0,0.,12.0,0.,12.0
1979-07-28 15:46:35.870 ,0,1,0.,12.0,0.,12.0,0.,12.0,0.,12.0
1979-07-28 15:46:47.870 ,0,0,0.,12.0,0.,12.0,0.,12.0,0.,12.0
1979-07-28 15:46:59.870 ,0,0,0.,12.0,0.,12.0,0.,12.0,0.,12.0
1979-07-28 15:47:11.870 ,0,1,0.,12.0,0.,12.0,0.,12.0,0.,12.0
1979-07-28 15:47:23.870 ,0,1,0.,12.0,0.,12.0,0.,12.0,0.,12.0
1979-07-28 15:47:35.870 ,0,0,0.,12.0,0.,12.0,0.,12.0,0.,12.0
1979-07-28 15:47:47.870 ,0,0,0.,12.0,0.,12.0,0.,12.0,0.,12.0
1979-07-28 15:47:59.870 ,1,1,0.,12.0,0.,12.0,0.,12.0,0.,12.0
1979-07-28 15:48:11.870 ,1,1,0.,12.0,0.,12.0,0.,12.0,0.,12.0
1979-07-28 15:48:23.870 ,1,0,0.,12.0,0.,12.0,0.,12.0,0.,12.0
1979-07-28 15:48:35.870 ,1,0,0.,12.0,0.,12.0,0.,12.0,0.,12.0
1979-07-28 15:48:47.870 ,2,1,0.,12.0,0.,12.0,0.,12.0,0.,12.0
1979-07-28 15:48:59.870 ,2,1,0.,12.0,0.,12.0,0.,12.0,0.,12.0
1979-07-28 15:49:11.870 ,2,0,0.,12.0,0.,12.0,0.,12.0,0.,12.0
1979-07-28 15:49:23.870 ,2,0,0.,12.0,0.,12.0,0.,12.0,0.,12.0
1979-07-28 15:49:35.870 ,3,1,0.,12.0,0.,12.0,0.,12.0,0.,12.0
1979-07-28 15:49:47.870 ,3,1,0.,12.0,0.,12.0,0.,12.0,0.,12.0
1979-07-28 15:49:59.870 ,3,0,0.,12.0,0.,12.0,0.,12.0,0.,12.0
1979-07-28 15:50:11.870 ,3,0,0.,12.0,0.,12.0,0.,12.0,0.,12.0
1979-07-28 15:50:23.870 ,4,1,0.,12.0,0.,12.0,0.,12.0,0.,12.0
1979-07-28 15:50:35.870 ,4,1,0.,12.0,0.,12.0,0.,12.0,0.,12.0
1979-07-28 15:50:47.870 ,4,0,0.,12.0,0.,12.0,0.,12.0,0.,12.0
1979-07-28 15:50:59.870 ,4,0,0.,12.0,0.,12.0,0.,12.0,0.,12.0
1979-07-28 15:51:11.870 ,5,1,0.,12.0,0.,12.0,0.,12.0,0.,12.0
1979-07-28 15:51:23.870 ,5,1,0.,12.0,0.,12.0,0.,12.0,0.,12.0
1979-07-28 15:51:35.870 ,5,0,0.,12.0,0.,12.0,0.,12.0,0.,12.0
1979-07-28 15:51:47.870 ,5,0,0.,12.0,0.,12.0,0.,12.0,0.,12.0
1979-07-28 15:51:59.870 ,6,1,0.,12.0,0.,12.0,0.,12.0,0.,12.0
1979-07-28 15:52:11.870 ,6,1,0.,12.0,0.,12.0,0.,12.0,0.,12.0
1979-07-28 15:52:23.870 ,6,0,0.,12.0,0.,12.0,0.,12.0,0.,12.0
1979-07-28 15:52:35.870 ,6,0,0.,12.0,0.,12.0,0.,12.0,0.,12.0
1979-07-28 15:52:47.870 ,7,1,0.,12.0,0.,12.0,0.,12.0,0.,12.0
1979-07-28 15:52:59.870 ,7,1,0.,12.0,0.,12.0,0.,12.0,0.,12.0
1979-07-28 15:53:11.870 ,7,0,0.,12.0,0.,12.0,0.,12.0,0.,12.0
1979-07-28 15:53:23.870 ,7,0,0.,12.0,0.,12.0,0.,12.0,0.,12.0
1979-07-28 15:53:35.870 ,7,1,0.,12.0,0.,12.0,0.,12.0,0.,12.0
1979-07-28 15:53:47.870 ,7,1,0.,12.0,0.,12.0,0.,12.0,0.,12.0
1979-07-28 15:53:59.870 ,7,0,0.,12.0,0.,12.0,0.,12.0,0.,12.0
1979-07-28 15:54:11.870 ,7,0,0.,12.0,0.,12.0,0.,12.0,0.,12.0
1979-07-28 15:54:23.870 ,6,1,0.,12.0,0.,12.0,0.,12.0,0.,12.0
1979-07-28 15:54:35.870 ,6,1,0.,12.0,0.,12.0,0.,12.0,0.,12.0
1979-07-28 15:54:47.870 ,6,0,0.,12.0,0.,12.0,0.,12.0,0.,12.0
1979-07-28 15:54:59.870 ,6,0,0.,12.0,0.,12.0,0.,12.0,0.,12.0
1979-07-28 15:55:11.870 ,5,1,0.,12.0,0.,12.0,0.,12.0,0.,12.0
1979-07-28 15:55:23.870 ,5,1,0.,12.0,0.,12.0,0.,12.0,0.,12.0
1979-07-28 15:55:35.870 ,5,0,0.,12.0,0.,12.0,0.,12.0,0.,12.0
1979-07-28 15:55:47.870 ,5,0,0.,12.0,0.,12.0,0.,12.0,0.,12.0
1979-07-28 15:55:59.870 ,4,1,0.,12.0,0.,12.0,0.,12.0,0.,12.0
1979-07-28 15:56:11.870 ,4,1,0.,12.0,0.,12.0,0.,12.0,0.,12.0
1979-07-28 15:56:23.870 ,4,0,0.,12.0,0.,12.0,0.,12.0,0.,12.0
1979-07-28 15:56:35.870 ,4,0,0.,12.0,0.,12.0,0.,12.0,0.,12.0
1979-07-28 15:56:47.870 ,3,1,0.,12.0,0.,12.0,0.,12.0,0.,12.0
1979-07-28 15:56:59.870 ,3,1,0.,12.0,0.,12.0,0.,12.0,0.,12.0
1979-07-28 15:57:11.870 ,3,0,0.,12.0,0.,12.0,0.,12.0,0.,12.0
1979-07-28 15:57:23.870 ,3,0,0.,12.0,0.,12.0,0.,12.0,0.,12.0
1979-07-28 15:57:35.870 ,2,1,0.,12.0,0.,12.0,0.,12.0,0.,12.0
1979-07-28 15:57:47.870 ,2,1,0.,12.0,0.,12.0,0.,12.0,0.,12.0
1979-07-28 15:57:59.870 ,2,0,0.,12.0,0.,12.0,0.,12.0,0.,12.0
1979-07-28 15:58:11.870 ,2,0,0.,12.0,0.,12.0,0.,12.0,0.,12.0
1979-07-28 15:58:23.870 ,1,1,0.,12.0,0.,12.0,0.,12.0,0.,12.0
1979-07-28 15:58:35.870 ,1,1,0.,12.0,0.,12.0,0.,12.0,0.,12.0
1979-07-28 15:58:47.870 ,1,0,0.,12.0,0.,12.0,0.,12.0,0.,12.0
1979-07-28 15:58:59.870 ,1,0,0.,12.0,0.,12.0,0.,12.0,0.,12.0
1979-07-28 15:59:11.870 ,0,1,0.,12.0,0.,12.0,0.,12.0,0.,12.0
1979-07-28 15:59:23.870 ,0,1,0.,12.0,0.,12.0,0.,12.0,0.,12.0
1979-07-28 15:59:35.870 ,0,0,0.,12.0,0.,12.0,0.,12.0,0.,12.0
1979-07-28 15:59:47.870 ,0,0,0.,12.0,0.,12.0,0.,12.0,0.,12.0
1979-07-28 15:59:59.870 ,0,1,0.,12.0,0.,12.0,0.,12.0,0.,12.0
1979-07-28 16:00:11.870 ,0,1,0.,12.0,0.,12.0,0.,12.0,0.,12.0
1979-07-28 16:00:23.870 ,0,0,0.,12.0,0.,12.0,0.,12.0,0.,12.0
1979-07-28 16:00:35.870 ,0,0,0.,12.0,0.,12.0,0.,12.0,0.,12.0
1979-07-28 16:00:47.870 ,1,1,0.,12.0,0.,12.0,0.,12.0,0.,12.0
1979-07-28 16:00:59.870 ,1,1,0.,12.0,0.,12.0,0.,12.0,0.,12.0
1979-07-28 16:01:11.870 ,1,0,0.,12.0,0.,12.0,0.,12.0,0.,12.0
1979-07-28 16:01:23.870 ,1,0,0.,12.0,0.,12.0,0.,12.0,0.,12.0
1979-07-28 16:01:35.870 ,2,1,0.,12.0,0.,12.0,0.,12.0,0.,12.0
1979-07-28 16:01:47.870 ,2,1,0.,12.0,0.,12.0,0.,12.0,0.,12.0
1979-07-28 16:01:59.870 ,2,0,0.,12.0,0.,12.0,0.,12.0,0.,12.0
1979-07-28 16:02:11.870 ,2,0,0.,12.0,0.,12.0,0.,12.0,0.,12.0
1979-07-28 16:02:23.870 ,3,1,0.,12.0,0.,12.0,0.,12.0,0.,12.0
1979-07-28 16:02:35.870 ,3,1,0.,12.0,0.,12.0,0.,12.0,0.,12.0
1979-07-28 16:02:47.870 ,3,0,0.,12.0,0.,12.0,0.,12.0,0.,12.0
1979-07-28 16:02:59.870 ,3,0,0.,12.0,0.,12.0,0.,12.0,0.,12.0
1979-07-28 16:03:11.870 ,4,1,0.,12.0,0.,12.0,0.,12.0,0.,12.0
1979-07-28 16:03:23.870 ,4,1,0.,12.0,0.,12.0,0.,12.0,0.,12.0
1979-07-28 16:03:35.870 ,4,0,0.,12.0,0.,12.0,0.,12.0,0.,12.0
1979-07-28 16:03:47.870 ,4,0,0.,12.0,0.,12.0,0.,12.0,0.,12.0
1979-07-28 16:03:59.870 ,5,1,0.,12.0,0.,12.0,0.,12.0,0.,12.0
1979-07-28 16:04:11.870 ,5,1,0.,12.0,0.,12.0,0.,12.0,0.,12.0
1979-07-28 16:04:23.870 ,5,0,0.,12.0,0.,12.0,0.,12.0,0.,12.0
1979-07-28 16:04:35.870 ,5,0,0.,12.0,0.,12.0,0.,12.0,0.,12.0
1979-07-28 16:04:47.870 ,6,1,0.,12.0,0.,12.0,0.,12.0,0.,12.0
1979-07-28 16:04:59.870 ,6,1,0.,12.0,0.,12.0,0.,12.0,0.,12.0
1979-07-28 16:05:11.870 ,6,0,0.,12.0,0.,12.0,0.,12.0,0.,12.0
1979-07-28 16:05:23.870 ,6,0,0.,12.0,0.,12.0,0.,12.0,0.,12.0
1979-07-28 16:05:35.870 ,7,1,0.,12.0,0.,12.0,0.,12.0,0.,12.0
1979-07-28 16:05:47.870 ,7,1,0.,12.0,0.,12.0,0.,12.0,0.,12.0
1979-07-28 16:05:59.870 ,7,0,0.,12.0,0.,12.0,0.,12.0,0.,12.0
1979-07-28 16:06:11.870 ,7,0,0.,12.0,0.,12.0,0.,12.0,0.,12.0
1979-07-28 16:06:23.870 ,7,1,0.,12.0,0.,12.0,0.,12.0,0.,12.0
1979-07-28 16:06:35.870 ,7,1,0.,12.0,0.,12.0,0.,12.0,0.,12.0
1979-07-28 16:06:47.870 ,7,0,0.,12.0,0.,12.0,0.,12.0,0.,12.0
1979-07-28 16:06:59.870 ,7,0,0.,12.0,0.,12.0,0.,12.0,0.,12.0
1979-07-28 16:07:11.870 ,6,1,0.,12.0,0.,12.0,0.,12.0,0.,12.0
1979-07-28 16:07:23.870 ,6,1,0.,12.0,0.,12.0,0.,12.0,0.,12.0
1979-07-28 16:07:35.870 ,6,0,0.,12.0,0.,12.0,0.,12.0,0.,12.0
1979-07-28 16:07:47.870 ,6,0,0.,12.0,0.,12.0,0.,12.0,0.,12.0
1979-07-28 16:07:59.870 ,5,1,0.,12.0,0.,12.0,0.,12.0,0.,12.0
1979-07-28 16:08:11.870 ,5,1,0.,12.0,0.,12.0,0.,12.0,0.,12.0
1979-07-28 16:08:23.870 ,5,0,0.,12.0,0.,12.0,0.,12.0,0.,12.0
1979-07-28 16:08:35.870 ,5,0,0.,12.0,0.,12.0,0.,12.0,0.,12.0
1979-07-28 16:08:47.870 ,4,1,0.,12.0,0.,12.0,0.,12.0,0.,12.0
1979-07-28 16:08:59.870 ,4,1,0.,12.0,0.,12.0,0.,12.0,0.,12.0
1979-07-28 16:09:11.870 ,4,0,0.,12.0,0.,12.0,0.,12.0,0.,12.0
1979-07-28 16:09:23.870 ,4,0,0.,12.0,0.,12.0,0.,12.0,0.,12.0
1979-07-28 16:09:35.870 ,3,1,0.,12.0,0.,12.0,0.,12.0,0.,12.0
1979-07-28 16:09:47.870 ,3,1,0.,12.0,0.,12.0,0.,12.0,0.,12.0
1979-07-28 16:09:59.870 ,3,0,0.,12.0,0.,12.0,0.,12.0,0.,12.0
1979-07-28 16:10:11.870 ,3,0,0.,12.0,0.,12.0,0.,12.0,0.,12.0
1979-07-28 16:10:23.870 ,2,1,0.,12.0,0.,12.0,0.,12.0,0.,12.0
1979-07-28 16:10:35.870 ,2,1,0.,12.0,0.,12.0,0.,12.0,0.,12.0
1979-07-28 16:10:47.870 ,2,0,0.,12.0,0.,12.0,0.,12.0,0.,12.0
1979-07-28 16:10:59.870 ,2,0,0.,12.0,0.,12.0,0.,12.0,0.,12.0
1979-07-28 16:11:11.870 ,1,1,0.,12.0,0.,12.0,0.,12.0,0.,12.0
1979-07-28 16:11:23.870 ,1,1,0.,12.0,0.,12.0,0.,12.0,1.,12.0
1979-07-28 16:11:35.870 ,1,0,0.,12.0,0.,12.0,0.,12.0,0.,12.0
1979-07-28 16:11:47.870 ,1,0,0.,12.0,0.,12.0,0.,12.0,0.,12.0
1979-07-28 16:11:59.870 ,0,1,0.,12.0,0.,12.0,0.,12.0,0.,12.0
1979-07-28 16:12:11.870 ,0,1,0.,12.0,0.,12.0,0.,12.0,0.,12.0
1979-07-28 16:12:23.870 ,0,0,0.,12.0,0.,12.0,0.,12.0,0.,12.0
1979-07-28 16:12:35.870 ,0,0,0.,12.0,0.,12.0,0.,12.0,0.,12.0
1979-07-28 16:12:47.870 ,0,1,0.,12.0,0.,12.0,0.,12.0,0.,12.0
1979-07-28 16:12:59.870 ,0,1,0.,12.0,0.,12.0,0.,12.0,0.,12.0
1979-07-28 16:13:11.870 ,0,0,0.,12.0,0.,12.0,0.,12.0,0.,12.0
1979-07-28 16:13:23.870 ,0,0,0.,12.0,0.,12.0,0.,12.0,0.,12.0
1979-07-28 16:13:35.870 ,1,1,0.,12.0,0.,12.0,0.,12.0,0.,12.0
1979-07-28 16:13:47.870 ,1,1,0.,12.0,0.,12.0,0.,12.0,0.,12.0
1979-07-28 16:13:59.870 ,1,0,0.,12.0,0.,12.0,0.,12.0,0.,12.0
1979-07-28 16:14:11.870 ,1,0,0.,12.0,0.,12.0,0.,12.0,0.,12.0
1979-07-28 16:14:23.870 ,2,1,0.,12.0,0.,12.0,0.,12.0,0.,12.0
1979-07-28 16:14:35.870 ,2,1,0.,12.0,0.,12.0,0.,12.0,0.,12.0
1979-07-28 16:14:47.870 ,2,0,0.,12.0,0.,12.0,0.,12.0,0.,12.0
1979-07-28 16:14:59.870 ,2,0,0.,12.0,0.,12.0,0.,12.0,0.,12.0
1979-07-28 16:15:11.870 ,3,1,0.,12.0,0.,12.0,0.,12.0,0.,12.0
1979-07-28 16:15:23.870 ,3,1,0.,12.0,0.,12.0,0.,12.0,0.,12.0
1979-07-28 16:15:35.870 ,3,0,0.,12.0,0.,12.0,0.,12.0,0.,12.0
1979-07-28 16:15:47.870 ,3,0,0.,12.0,0.,12.0,0.,12.0,0.,12.0
1979-07-28 16:15:59.870 ,4,1,0.,12.0,0.,12.0,0.,12.0,0.,12.0
1979-07-28 16:16:11.870 ,4,1,0.,12.0,0.,12.0,0.,12.0,0.,12.0
1979-07-28 16:16:23.870 ,4,0,0.,12.0,0.,12.0,0.,12.0,0.,12.0
1979-07-28 16:16:35.870 ,4,0,0.,12.0,0.,12.0,0.,12.0,0.,12.0
1979-07-28 16:16:47.870 ,5,1,0.,12.0,0.,12.0,0.,12.0,0.,12.0
1979-07-28 16:16:59.870 ,5,1,0.,12.0,0.,12.0,0.,12.0,0.,12.0
1979-07-28 16:17:11.870 ,5,0,0.,12.0,0.,12.0,0.,12.0,0.,12.0
1979-07-28 16:17:23.870 ,5,0,0.,12.0,0.,12.0,0.,12.0,0.,12.0
1979-07-28 16:17:35.870 ,6,1,0.,12.0,0.,12.0,0.,12.0,0.,12.0
1979-07-28 16:17:47.870 ,6,1,0.,12.0,0.,12.0,0.,12.0,0.,12.0